Location: Nelson
(41.2830°S, 173.2830°E)
Time: 14:02:18
(UTC+13:00)

Resurs 01 Rocket - Pass Details

Date: 24 January 2019
Orbit: 635 x 643 km, 98.0° (Epoch: 13 October)

Event Time Altitude Azimuth Distance (km) Brightness Sun altitude
Rises 23:11:27 0° 176° (S) 2,979 5.8 -20.5°
Reaches altitude 10° 23:13:47 10° 184° (S) 2,060 5.0 -20.8°
Maximum altitude 23:17:55 37° 250° (WSW) 1,004 3.0 -21.2°
Drops below altitude 10° 23:22:00 10° 317° (NW) 2,032 4.1 -21.7°
Enters shadow 23:22:09 - 318° (NW) 2,089 4.1 -21.7°
